Weather in Kryzhanivka

Ukraine / Odesa District     46°33′37″N   30°47′21″E
temp.,
°C
wind,
m/s
gust,
m/s
humid.,
%
clouds,
%
prec.,
mm/h
press.,
hPa
HPBL,
m
18 october, mon
mon1800:00+10nnw476146 0.0 1021233
03:00+9n466566 0.0 1021201
06:00+8nnw46685 0.0 1021204
09:00+9nnw45645 0.0 1023252
12:00+12nnw455070 0.0 1023771
15:00+14nw45455 0.0 10211433
18:00+14nw365129 0.0 1021519
21:00+12nnw3550100 0.0 1022187
19 october, tue
tue1900:00+11nw465299 0.0 1023268
03:00+10nw596050 0.0 1023418
06:00+9nw611705 0.0 1024569
09:00+9nnw712745 0.0 1026675
12:00+12nnw8104857 0.0 10261497
15:00+13nnw79335 0.0 10261924
18:00+12n57325 0.0 10271374
21:00+11nne23360 0.0 1029218
20 october, wed
wed2000:00+10w113566 0.0 1029117
03:00+9w2339100 0.0 1029122
06:00+9w224271 0.0 102996
09:00+10sw23465 0.0 1029171
12:00+13ssw45524 0.0 1029716
15:00+15s665420 0.0 10271041
18:00+13s7967100 0.0 1026599
21:00+13ssw81273100 0.0 1025580
21 october, thu
thu2100:00+13ssw91375100 0.0 1024685
03:00+13ssw813785 0.0 1023668
06:00+13ssw8137815 0.0 1022668
09:00+13ssw9137553 0.0 1021746
12:00+15ssw10126680 0.0 1020848
15:00+15ssw101366100 0.0 1018826
18:00+14s9137477 0.0 1017623
21:00+13ssw81380100 0.0 1017531
22 october, fri
fri2200:00+13ssw8138434 0.0 1016442
03:00+13sw5109040 0.0 1015284
06:00+12sw46855 0.0 1014161
09:00+13sw34710 0.0 1015124
12:00+17ssw34560 0.0 1015323
15:00+17s56640 0.0 1013377
18:00+15s57805 0.0 1013191
21:00+14s58835 0.0 1013199